STARLINK-5551, 56359

Orbit data source: Space-Track

STARLINK-5551, 56359 is a payload satellite owned by SpaceX/Seattle (US) in SSO that was launched on Thu, 27 Apr 2023 UTC via an FALCON 9 launch vehicle from the Air Force Western Test Range (AFWTR). Payload-class satellites include a variety of spacecraft equipped with specific instruments for various scientific and technological missions. These include communications satellites like Starlink; space stations such as the ISS; scientific satellites like the Hubble; Earth observation satellites from companies like Planet Labs, Umbra, and HawkEye 360; GPS; miniature CubeSats for education and research; and military/defense satellites.

Loading next visibility...
Identifier
56359, 2023-058AU
Orbit
SSO
Country
Flag of USUS
Related business
Manufacturer
SpaceX/Seattle
Mission
Operational Commercial Communications
Bus & Motor
STARLINK, Unknown motor
Mass
300 kg wet, ~260 kg dry
Launch date (UTC)
2023-04-27 (3 years ago)
Launch vehicle
FALCON 9
Launch site
Air Force Western Test Range (AFWTR)
Object type
Payload
Rocket body
Debris
Shape & HBR
Box + 1 Pan, 10.1 m
Radar Cross Section
11.087 m², Large (>1 m²)

Expand to show TLE details & history
Last TLE update: 3 days ago

TLE from 3 days ago
0 STARLINK-5551
1 56359U 23058AU  26170.93088701 -.00000485  00000-0 -29674-4 0  9999
2 56359  97.3429 169.7481 0001701  93.7385 266.4037 15.05648798173501
Epoch: 2026-06-19T22:20Z
TLE epoch observation values (Epoch: 2026-06-19T22:20:28.637Z)
Latitude
-0.00004°
Longitude
-73.52401°
Altitude
552.662 km
Speed
7.585 km/s
True Right ascension
11h 18m 59s
True Declination
0° 00' 00"
Sunlit
Object was in daylight at epoch
Visualization orbit readout
Latitude
Unknown
Longitude
Unknown
Altitude
Unknown
Speed
Unknown
Apparent Right ascension
Unknown
Apparent Declination
Unknown
Sunlit
N/A
Visualization observer readout
Local Sidereal Time
21:26:24
Azimuth
Unknown
Elevation
Unknown
Doppler factor
Unknown
Orbital elements
Apogee altitude
547.675 km
Perigee altitude
545.319 km
Semi-major axis
6,924.634 km
Eccentricity
0.00017
Inclination
97.3429°
RAAN
169.7481°
Arg. of periapsis
93.7385°
True anomaly
266.38425°
Mean anomaly
266.4037°
Eccentric anomaly
266.39397°
Mean motion
3.76659 °/min
Orbital period
95.58 mins
BSTAR
-0.000029674
Loading maneuver chart data...
Computing Atmospheric mass density...
Loading historical data...
Loading historical data...
Loading historical data...
Loading historical data...
Loading historical data...
Loading historical data...
Loading historical data...

Documentation

Showing up to 5 results
|